logo tempoitalia

Diretta Meteo Ingleside-Tp Mcc, Stati Uniti (USA)lunedì 31 agosto ore 01:35

Mappa
Sereno 29 °C Nuvoloso 24 Ore: T.min 27 T.max 37
Ponente Sud Km/h 9.3 Punto di rugiada: 26 °C Umidità: 83% Visibilità: 10 Km
Il sole sorge alle: 07:07 Il sole tramonta alle: 19:51
31 Agosto 2026 01:35 tempo osservato: Nuvoloso Nuvoloso 29 83 1014 vento: Nord S 9.3
31 Agosto 2026 01:15 tempo osservato: Sereno Sereno 29 79 1014 vento: Nord S/SE 11.1
31 Agosto 2026 00:55 tempo osservato: Sereno Sereno 29 79 1014 vento: Nord S/SE 13
31 Agosto 2026 00:35 tempo osservato: Sereno Sereno 29 83 1014 vento: Nord S/SE 13
31 Agosto 2026 00:15 tempo osservato: Sereno Sereno 29 79 1014 vento: Nord S/SE 13
30 Agosto 2026 23:55 tempo osservato: Sereno Sereno 29 79 1014 vento: Nord S/SE 11.1
30 Agosto 2026 23:35 tempo osservato: Sereno Sereno 29 79 1014 vento: Nord S/SE 11.1
30 Agosto 2026 23:15 tempo osservato: Nuvoloso Nuvoloso 29 79 1014 vento: Nord S/SE 14.8
30 Agosto 2026 22:55 tempo osservato: Sereno Sereno 30 74 1014 vento: Nord S/SE 14.8
30 Agosto 2026 22:35 tempo osservato: Sereno Sereno 30 74 1014 vento: Nord S/SE 14.8
30 Agosto 2026 22:15 tempo osservato: Sereno Sereno 30 74 1014 vento: Nord S/SE 14.8
30 Agosto 2026 21:55 tempo osservato: Sereno Sereno 30 74 1014 vento: Nord S/SE 16.7
30 Agosto 2026 21:35 tempo osservato: Sereno Sereno 30 74 1013 vento: Nord S/SE 14.8
30 Agosto 2026 21:15 tempo osservato: Sereno Sereno 30 74 1013 vento: Nord S/SE 18.5
30 Agosto 2026 20:55 tempo osservato: Sereno Sereno 30 74 1013 vento: Nord S/SE 16.7
30 Agosto 2026 20:35 tempo osservato: Sereno Sereno 30 74 1013 vento: Nord S/SE 18.5
30 Agosto 2026 20:15 tempo osservato: Sereno Sereno 30 74 1012 vento: Nord SE 20.3
30 Agosto 2026 19:55 tempo osservato: Sereno Sereno 31 70 1012 vento: Nord SE 22.2
30 Agosto 2026 19:35 tempo osservato: Sereno Sereno 31 70 1012 vento: Nord SE 24
30 Agosto 2026 19:15 tempo osservato: Sereno Sereno 32 62 1012 vento: Nord SE 24
30 Agosto 2026 18:55 tempo osservato: Sereno Sereno 33 62 1012 vento: Nord SE 25.9
30 Agosto 2026 18:35 tempo osservato: Sereno Sereno 33 62 1012 vento: Nord SE 24
30 Agosto 2026 18:15 tempo osservato: Sereno Sereno 33 62 1012 vento: Nord SE 25.9
30 Agosto 2026 17:55 tempo osservato: Sereno Sereno 34 59 1012 vento: Nord SE 29.6
30 Agosto 2026 17:35 tempo osservato: Sereno Sereno 34 56 1012 vento: Nord S/SE 27.8
30 Agosto 2026 17:15 tempo osservato: Sereno Sereno 35 53 1012 vento: Nord SE 29.6
30 Agosto 2026 16:55 tempo osservato: Sereno Sereno 35 56 1012 vento: Nord SE 25.9
30 Agosto 2026 16:35 tempo osservato: Sereno Sereno 35 53 1012 vento: Nord S/SE 27.8
30 Agosto 2026 16:15 tempo osservato: Sereno Sereno 36 50 1013 vento: Nord S/SE 27.8
30 Agosto 2026 15:55 tempo osservato: Sereno Sereno 36 50 1013 vento: Nord S/SE 25.9
30 Agosto 2026 15:35 tempo osservato: Nuvoloso Nuvoloso 36 50 1014 vento: Nord S/SE 20.3
30 Agosto 2026 15:15 tempo osservato: Nuvoloso Nuvoloso 36 50 1014 vento: Nord SE 24
30 Agosto 2026 14:55 tempo osservato: Sereno Sereno 36 50 1014 vento: Nord S/SE 24
30 Agosto 2026 14:35 tempo osservato: Nuvoloso Nuvoloso 36 50 1014 vento: Nord S 22.2
30 Agosto 2026 14:15 tempo osservato: Sereno Sereno 37 47 1015 vento: Nord S/SE 22.2
30 Agosto 2026 13:55 tempo osservato: Sereno Sereno 37 47 1015 vento: Nord S/SE 20.3
30 Agosto 2026 13:35 tempo osservato: Sereno Sereno 36 50 1015 vento: Nord S/SE 20.3
30 Agosto 2026 13:15 tempo osservato: Nuvoloso Nuvoloso 36 53 1015 vento: Nord S/SE 22.2
30 Agosto 2026 12:55 tempo osservato: Nuvoloso Nuvoloso 35 56 1016 vento: Nord S 16.7
30 Agosto 2026 12:35 tempo osservato: Sereno Sereno 36 50 1016 vento: Nord S 20.3
30 Agosto 2026 12:15 tempo osservato: Nuvoloso Nuvoloso 36 50 1016 vento: Nord S 18.5
30 Agosto 2026 11:55 tempo osservato: Nuvoloso Nuvoloso 36 50 1016 vento: Nord S 20.3
30 Agosto 2026 11:35 tempo osservato: Sereno Sereno 35 56 1016 vento: Nord S 16.7
30 Agosto 2026 11:15 tempo osservato: Sereno Sereno 34 59 1016 vento: Nord S 14.8
30 Agosto 2026 10:55 tempo osservato: Nuvoloso Nuvoloso 34 56 1016 vento: Nord S 14.8
30 Agosto 2026 10:35 tempo osservato: Molto Nuvoloso Molto Nuvoloso 35 56 1016 vento: Nord S/SE 18.5
30 Agosto 2026 10:15 tempo osservato: Molto Nuvoloso Molto Nuvoloso 33 70 1016 vento: Nord S 14.8
30 Agosto 2026 09:55 tempo osservato: Nuvoloso Nuvoloso 32 70 1016 vento: Nord S 13
30 Agosto 2026 09:35 tempo osservato: Nuvoloso Nuvoloso 31 74 1016 vento: Nord S/SO 11.1
30 Agosto 2026 09:15 tempo osservato: Nuvoloso Nuvoloso 31 74 1016 vento: Nord S/SO 9.3
30 Agosto 2026 08:55 tempo osservato: Nuvoloso Nuvoloso 31 79 1015 vento: Nord S/SO 13
30 Agosto 2026 08:35 tempo osservato: Sereno Sereno 30 84 1015 vento: Nord S/SO 14.8
30 Agosto 2026 08:15 tempo osservato: Sereno Sereno 30 84 1015 vento: Nord S 9.3
30 Agosto 2026 07:55 tempo osservato: Sereno Sereno 29 83 1015 vento: Nord N 0
30 Agosto 2026 07:35 tempo osservato: Sereno Sereno 28 83 1015 vento: Nord N 5.5
30 Agosto 2026 07:15 tempo osservato: Sereno Sereno 27 83 1015 vento: Nord N 5.5
30 Agosto 2026 06:55 tempo osservato: Sereno Sereno 27 83 1015 vento: Nord S 7.4
30 Agosto 2026 06:35 tempo osservato: Sereno Sereno 28 83 1015 vento: Nord S 7.4
30 Agosto 2026 06:15 tempo osservato: Sereno Sereno 28 83 1014 vento: Nord S/SO 7.4
30 Agosto 2026 05:55 tempo osservato: Sereno Sereno 28 83 1015 vento: Nord S 7.4
30 Agosto 2026 05:35 tempo osservato: Sereno Sereno 28 83 1015 vento: Nord S/SO 7.4
30 Agosto 2026 05:15 tempo osservato: Sereno Sereno 28 83 1015 vento: Nord S 7.4
30 Agosto 2026 04:55 tempo osservato: Sereno Sereno 28 83 1015 vento: Nord S 9.3
30 Agosto 2026 04:35 tempo osservato: Nuvoloso Nuvoloso 28 83 1015 vento: Nord S 9.3
30 Agosto 2026 04:15 tempo osservato: Nuvoloso Nuvoloso 28 83 1015 vento: Nord S 9.3
30 Agosto 2026 03:55 tempo osservato: Nuvoloso Nuvoloso 28 83 1015 vento: Nord S 7.4
30 Agosto 2026 03:35 tempo osservato: Sereno Sereno 27 83 1015 vento: Nord S 7.4
30 Agosto 2026 03:15 tempo osservato: Sereno Sereno 27 83 1015 vento: Nord S 9.3
30 Agosto 2026 02:55 tempo osservato: Sereno Sereno 28 78 1015 vento: Nord S 7.4
30 Agosto 2026 02:35 tempo osservato: Sereno Sereno 28 83 1015 vento: Nord S 7.4
30 Agosto 2026 02:15 tempo osservato: Sereno Sereno 28 78 1015 vento: Nord S 9.3
30 Agosto 2026 01:55 tempo osservato: Sereno Sereno 28 83 1015 vento: Nord S 9.3
30 Agosto 2026 01:35 tempo osservato: Sereno Sereno 28 83 1015 vento: Nord S 7.4